Other Public Products
Issued by NWS Grand Forks, ND

Home | Current Version | Previous Version | Graphics & Text | Print | Product List | Glossary On
Versions: 1 2 3 4 5 6 7 8 9 10 11 12 13 14 15 16 17 18 19 20 21 22 23 24 25 26 27 28 29 30 31 32 33 34 35 36 37 38 39 40 41 42 43 44 45 46 47 48 49 50
000
FPUS83 KFGF 191610
OPUFGF
PRAIRIE TO PINES WEATHER ROUNDUP
NATIONAL WEATHER SERVICE EASTERN NORTH DAKOTA/GRAND FORKS ND
1100 AM CDT TUE SEP 19 2017

 **SATELLITE DATA USED TO AUGMENT SKY COVER AT AUTOMATED STATIONS**
 *****  WEATHER ACROSS EASTERN NORTH DAKOTA  *****

CITY           SKY/WX    TMP DP  RH WIND       PRES   REMARKS
GRAND FORKS    CLOUDY    62  62 100 SE17      29.70F FOG
GRAND FORKS AF CLOUDY    61  61 100 SE16G24   29.68F FOG
GRAND CITY NWS NOT AVBL
BUXTON         NOT AVBL
DEVILS LAKE    CLOUDY    61  60  97 SE23G31   29.60F
FARGO          CLOUDY    68  63  84 SE16G29   29.70F
WAHPETON ARPT  CLOUDY    68  61  77 SE16G26   29.71F
$$

 *****  WEATHER ACROSS CENTRAL AND WESTERN NORTH DAKOTA  *****

CITY           SKY/WX    TMP DP  RH WIND       PRES   REMARKS
JAMESTOWN      NOT AVBL
BISMARCK       LGT RAIN  65  44  46 S20       29.51S
MINOT          CLOUDY    64  59  83 SE22G30   29.46R
MINOT AFB      CLOUDY    62  59  88 SE20G28   29.45R
GARRISON         N/A     64  61  90 S16       29.46S
WILLISTON      LGT RAIN  57  53  86 SW8       29.45R
DICKINSON      FAIR      61  49  64 SW9       29.47R
HETTINGER      FAIR      62  45  53 W9        29.52F
$$

 *****  OTHER OBSERVATIONS NORTHEAST NORTH DAKOTA  *****

CITY           SKY/WX    TMP DP  RH WIND       PRES   REMARKS
WALHALLA       FOG      N/A N/A N/A SE13G20   29.69F VSB 1
LANGDON        FOG       59  59 100 SE18G28   29.66F VSB 3/4
CAVALIER       FOG       59  59 100 SE8G15    29.70F VSB 1/2
GRAFTON        CLOUDY    59  59 100 SE18      29.72F FOG
CANDO          CLOUDY    61  61 100 SE23G32   29.60F FOG
FORT TOTTEN      N/A     62  62 100 SE14      29.95S
ROLLA          FOG       57  59 100 SE21      29.60S VSB 1/4
RUGBY          CLOUDY    63  63 100 S20G29    29.54R FOG
 ***** THE ABOVE OBSERVATIONS ARE NON NWS ARE NOT QUALITY
        CONTROLLED AND MAY MIS-REPORT RAIN FOR SNOW...
$$

 *****  OTHER OBSERVATIONS SOUTHEAST NORTH DAKOTA *****

CITY           SKY/WX    TMP DP  RH WIND       PRES   REMARKS
COOPERSTOWN    FOG       63  63 100 SE17G23   29.66F VSB 1
VALLEY CITY    CLOUDY    64  64 100 SE21G28   29.66F FOG
OAKES          NOT AVBL
GWINNER        CLOUDY    68  64  88 SE13      29.66F
SHEYENNE NWR     N/A     66  66 100 SE14      29.95S
BUFFALO        NOT AVBL
WYNDMERE       NOT AVBL
 ***** THE ABOVE OBSERVATIONS ARE NON NWS ARE NOT QUALITY
       CONTROLLED AND MAY MIS-REPORT RAIN FOR SNOW...
$$

  *****  WEATHER ACROSS NORTHERN MINNESOTA  *****

CITY           SKY/WX    TMP DP  RH WIND       PRES   REMARKS
FLAG ISLAND    CLOUDY    55  54  94 SE6       29.84S
WARROAD        CLOUDY    57  54  88 SE10      29.82F
ROSEAU         CLOUDY    57  54  88 E12       29.79F
HALLOCK        CLOUDY    61  57  88 SE15      29.73F
THF RVR FALLS  PTSUNNY   64  59  82 SE20G29   29.76F
HALSTAD        NOT AVBL
FOSSTON        FAIR      64  57  77 SE13G21   29.78F
BAUDETTE       CLOUDY    57  56  96 SE9G20    29.85S
WASKISH        CLOUDY    59  59 100 SE10      29.85S
CROOKSTON      PTSUNNY   63  61  94 S17       29.74F
$$
  *****  WEATHER ACROSS CENTRAL AND WEST MINNESOTA  *****

CITY           SKY/WX    TMP DP  RH WIND       PRES   REMARKS
BEMIDJI        CLOUDY    60  57  90 SE15      29.84S
PARK RAPIDS    CLOUDY    63  59  87 SE14      29.83F
WADENA         CLOUDY    61  61 100 SE14      29.82F FOG
DETROIT LAKES  CLOUDY    63  59  88 SE18      29.78F
MOORHEAD       CLOUDY    68  61  77 SE14G21   29.72F
FERGUS FALLS   FAIR      70  64  83 SE18G25   29.74F
ELBOW LAKE     CLOUDY    67  63  89 E17       29.76F
MORRIS MN      FAIR      70  64  83 SE20      29.76F
STAPLES        CLOUDY    61  61 100 SE6       29.85S
WHEATON        CLOUDY    70  63  78 SE18G24   29.73F
$$
  *****  WEATHER ELSEWHERE ACROSS MINNESOTA  *****

CITY           SKY/WX    TMP DP  RH WIND       PRES   REMARKS
DULUTH         CLOUDY    59  58  96 SE8       29.94F
INTRNTL FALLS  CLOUDY    59  55  87 SE12      29.89F
ELY            CLOUDY    61  55  82 SE8       29.96S
CLOQUET        CLOUDY    61  55  82 SE7       29.94S
BRAINERD       CLOUDY    61  59  93 SE13G18   29.87F
HIBBING        CLOUDY    59  57  93 SE8       29.92F
ALEXANDRIA     CLOUDY    63  62  97 SE14      29.82F
SAINT CLOUD    CLOUDY    65  63  93 SE8       29.86F
MINNEAPOLIS    FAIR      70  63  78 SE12      29.89F
$$

  *****  WEATHER ACROSS SOUTH DAKOTA  *****

CITY           SKY/WX    TMP DP  RH WIND       PRES   REMARKS
SIOUX FALLS    DRIZZLE   69  67  93 S14G23    29.75F FOG
BROOKINGS      CLOUDY    66  64  93 SE16      29.75F
WATERTOWN      CLOUDY    68  65  90 SE23G30   29.70F
HURON          CLOUDY    68  65  90 SE24G33   29.64F
SISSETON         N/A     69  65  86 SE17G30   29.68F
ABERDEEN       PTSUNNY   73  64  73 SE30G37   29.62F
MITCHELL       CLOUDY    72  65  78 SE18G29   29.66F
PIERRE         PTSUNNY   68  62  81 SE10      29.52S
MOBRIDGE       FAIR      70  63  78 S17G30    29.50S THUNDER
RAPID CITY     SUNNY     63  45  51 N8        29.57R
$$

  *****  SOME WEATHER IN NEARBY STATES *****

CITY           SKY/WX    TMP DP  RH WIND       PRES   REMARKS
GLASGOW MT     FAIR      53  45  74 W15       29.53R
GREAT FALLS MT FAIR      48  33  56 SW16      29.64S
CHEYENNE WY    FAIR      69  20  15 SW13      29.74F
SCOTTSBLUFF NE FAIR      57  52  83 E6        29.63F
OMAHA NE       FAIR      76  67  73 SE15      29.80F
DES MOINES IA  CLOUDY    69  66  90 SE12      29.90S
DAVENPORT IA   FAIR      70  63  78 E7        29.99R
CHICAGO IL     PTSUNNY   71  66  84 NE6       29.97S
EAU CLAIRE WI  FAIR      67  58  72 SE8       29.94F
LA CROSSE WI   FAIR      69  60  73 E8        29.95F
$$

  *****  SOME NATIONAL WEATHER *****

CITY           SKY/WX    TMP DP  RH WIND       PRES   REMARKS
LA GUARDIA NY  PTSUNNY   74  66  76 NE16      29.99S
RALEIGH NC     FAIR      78  65  63 N10       30.00F
ATLANTA GA     FAIR      83  64  52 W5        30.05F
NEW ORLEANS LA PTSUNNY   86  74  67 CALM      30.02S HX  94
OKLAHOMA CITY  FAIR      84  72  67 S17       29.86F
ALBUQUERQUE NM FAIR      70  30  22 S8        30.09S
SALT LAKE CITY PTSUNNY   51  43  74 NW7       29.92R
LOS ANGELES CA CLOUDY    70  61  73 S5        29.94R
BOISE ID       LGT RAIN  50  40  68 SW8       29.90R
SEATTLE WA     LGT RAIN  51  48  89 S8        29.74R
$$

*** WEATHER ACROSS MANITOBA...SASKATCHEWAN AND ONTARIO ***
                ***ONTARIO***

CITY           SKY/WX    TMP DP  RH WIND       PRES   REMARKS
GERALDTON      PTSUNNY   61  54  77 S7        30.08S
THUNDER BAY    PTSUNNY   64  52  63 SE10      30.02F
SIOUX LOOKOUT  CLOUDY    59  54  82 SE6       29.94F
TORONTO        PTSUNNY   77  66  69 CALM      30.04S
BIG TROUT LK   SUNNY     48  41  76 S8        30.06R
PICKLE LAKE    PTSUNNY   52  46  82 E6        30.00F
DRYDEN         CLOUDY    57  54  88 S10G17    29.92S
KENORA         CLOUDY    57  54  88 SE10      29.87F
$$
                *** MANITOBA***

CITY           SKY/WX    TMP DP  RH WIND       PRES   REMARKS
BRANDON        LGT RAIN  55  54  94 E13G22    29.61R
DAUPHIN        FOG       54  54 100 E13G20    29.63F VSB 1/2
ISLAND LAKE    NOT AVBL
PILOT MOUND      N/A     57  55  94 SE26G33     N/A
THE PAS        PTSUNNY   57  48  72 E13G23    29.74F
THOMPSON       MOSUNNY   54  39  58 E6        29.94F
WINNIPEG       DRIZZLE   59  55  88 SE17G24   29.74S
LYNN LAKE      SUNNY     52  41  66 SE7       29.90S
CHURCHILL      PTSUNNY   45  39  81 VRB2      30.01R
GILLAM         MOSUNNY   50  41  71 S5        30.00R
$$
                ***SASKATCHEWAN***

CITY           SKY/WX    TMP DP  RH WIND       PRES   REMARKS
ESTEVAN        LGT RAIN  57  55  94 SE17G23   29.40F
KINDERSLEY     PTSUNNY   45  43  93 W10G17    29.48R
LLOYDMINSTER   CLOUDY    45  45 100 SW13      29.42F
PRINCE ALBERT  LGT RAIN  52  50  93 E13G20    29.53F FOG
REGINA         LGT RAIN  52  50  93 E9        29.42F FOG
YORKTON        PTSUNNY   55  50  82 E15G21    29.54S



USA.gov is the U.S. government's official web portal to all federal, state and local government web resources and services.